Location: G�yn�k
(36.6721°N, 30.5542°E)
Time: 07:45:29
(UTC+00:00)

Cosmos 2263 Rocket - Pass Details

Date: 07 June 2020
Orbit: 825 x 847 km, 71.0° (Epoch: 05 July)

Event Time Altitude Azimuth Distance (km) Brightness Sun altitude
Rises 01:08:07 0° 320° (NW) 3,376 5.4 -15.4°
Reaches altitude 10° 01:11:14 10° 303° (WNW) 2,434 4.5 -14.9°
Maximum altitude 01:14:59 19° 260° (W) 1,886 3.5 -14.4°
Enters shadow 01:15:45 18° 250° (WSW) 1,910 3.5 -14.3°
